Regional Weather Roundup
Issued by NWS

Home | Current Version | Previous Version | Graphics & Text | Print | Product List | Glossary On
Versions: 1 2 3 4 5 6 7 8 9 10 11 12 13 14 15 16 17 18 19 20 21 22 23 24 25 26 27 28 29 30 31 32 33 34 35 36 37 38 39 40 41 42 43 44 45 46 47 48 49 50
000
ASUS45 KCYS 231810
RWRWY

WYOMING REGIONAL WEATHER ROUNDUP
NATIONAL WEATHER SERVICE CHEYENNE WY
1100 AM MST SUN NOV 23 2014

NOTE:  "FAIR" INDICATES FEW OR NO CLOUDS BELOW 12,000 FEET
WITH NO SIGNIFICANT WEATHER AND/OR OBSTRUCTIONS TO VISIBILITY.

WYZ001-231900-
YELLOWSTONE NATIONAL PARK

CITY           SKY/WX    TMP DP  RH WIND       PRES   REMARKS
LK YELLOWSTONE   N/A     20  14  77 W9        29.98R WCI   9
6HR MIN TEMP:  15; 6HR MAX TEMP:  20; 6HR PCP:  0.03;

W YELLOWSTONE  NOT AVBL

$$
WYZ002>013-054>058-071-098>099-231900-
NORTHERN WYOMING

CITY           SKY/WX    TMP DP  RH WIND       PRES   REMARKS
JACKSON        MOSUNNY   27  16  63 SW20G26   30.01R WCI  13
CODY           PTSUNNY   34  19  55 W16       29.91R WCI  23
GREYBULL       PTSUNNY   36  23  59 NW9       29.92R WCI  29
6HR MIN TEMP:  21; 6HR MAX TEMP:  36;

WORLAND        CLOUDY    30  23  75 S5        29.92S WCI  25
6HR MIN TEMP:  16; 6HR MAX TEMP:  30;

SHERIDAN       CLOUDY    37  20  50 NW30G39   29.87R WCI  24
6HR MIN TEMP:  32; 6HR MAX TEMP:  39;

BUFFALO        FLURRIES  36  17  46 N23G36    29.83S WCI  24
6HR MIN TEMP:  30; 6HR MAX TEMP:  38; 6HR PCP: TRACE;

GILLETTE       NOT AVBL
HULETT           N/A    N/A N/A N/A MISG        N/A
NEWCASTLE      FAIR      34  21  60 NW22G32   29.80F WCI  22

$$
WYZ014>020-022>026-101>103-231900-
CENTRAL WYOMING

CITY           SKY/WX    TMP DP  RH WIND       PRES   REMARKS
BIG PINEY      MOSUNNY   40  12  32 N30G36    30.00S WCI  28
6HR MIN TEMP:  22; 6HR MAX TEMP:  42; 6HR PCP: TRACE;

PINEDALE       PTCLDY    27  16  63 NW22G29   30.00R WCI  12
DUBOIS         CLOUDY    27  12  54 NW17G29   29.93R WCI  14
LANDER         NOT AVBL
RIVERTON       SUNNY     35  16  45 NW18G26   29.91F WCI  24
6HR MIN TEMP:  27; 6HR MAX TEMP:  35;

CASPER         CLOUDY    32  16  51 NW15      29.88R WCI  22
6HR MIN TEMP:  21; 6HR MAX TEMP:  33;

DOUGLAS        CLOUDY   N/A N/A N/A NW20G26   29.85F

$$
WYZ021-027>030-104>119-231900-
SOUTHERN WYOMING

CITY           SKY/WX    TMP DP  RH WIND       PRES   REMARKS
EVANSTON       MOSUNNY   27  18  69 NW14      30.10R WCI  16
6HR MIN TEMP:  20; 6HR MAX TEMP:  27;

KEMMERER       CLEAR     27  19  74 NW25G31   30.05R WCI  11
FORT BRIDGER   MOCLDY    28  26  91 W12G17    30.10S FOG     WCI  18
ROCK SPRINGS   MOSUNNY   29  14  53 NW18G31   29.99S WCI  16
6HR MIN TEMP:  23; 6HR MAX TEMP:  29; 6HR PCP: TRACE;

DIXON          LGT SNOW  28  25  88 NW14      29.95S WCI  17
RAWLINS        CLOUDY    28  18  66 NW16G24   29.89S WCI  16
6HR MIN TEMP:  21; 6HR MAX TEMP:  28;

SARATOGA       CLOUDY    28  23  80 NW14G20   29.89R WCI  17
LARAMIE        CLOUDY    28  13  53 NW24G30   29.81S WCI  14
6HR MIN TEMP:  20; 6HR MAX TEMP:  29;

CHEYENNE       MOSUNNY   35  10  35 N33G45    29.77S WCI  21
6HR MIN TEMP:  27; 6HR MAX TEMP:  36;

TORRINGTON     SUNNY     40  14  34 NW30G39   29.81R WCI  28
6HR MIN TEMP:  24; 6HR MAX TEMP:  40;

PINE BLUFFS    FAIR      37  12  35 N25G37    29.80F WCI  26

$$



USA.gov is the U.S. government's official web portal to all federal, state and local government web resources and services.